Terminal Aerodrome Forecast
Issued by NWS Albany, NY

Home | Current Version | Previous Version | Text Only | Print | Product List | Glossary On
Versions: 1 2 3 4 5 6 7 8 9 10 11 12 13 14 15 16 17 18 19 20 21
000
FTUS41 KALY 170403 AAA
TAFGFL
TAF AMD
KGFL 170403Z 1704/1724 00000KT 1 1/2SM -SN BR OVC020
      TEMPO 1704/1706 3/4SM -SN BR BKN010
     FM170600 00000KT 3/4SM -SN BR VV010
     FM170800 00000KT 1/2SM SN FG VV008
     FM171500 29004KT 4SM -SN BR BKN025 OVC040
     FM171800 30008KT P6SM VCSH BKN040=

USA.gov is the U.S. government's official web portal to all federal, state and local government web resources and services.